• Processing (Info)

  • MPEC 2011-P59 : 2011 PK10

    The following Minor Planet Electronic Circular may be linked-to from your own Web pages, but must not otherwise be redistributed electronically.

    A form allowing access to any MPEC is at the bottom of this page.


    Read MPEC 2011-P58 Read MPEC 2011-Q01


    M.P.E.C. 2011-P59                                Issued 2011 Aug. 15, 12:52 UT
    
         The Minor Planet Electronic Circulars contain information on unusual
             minor planets and routine data on comets.  They are published
       on behalf of Commission 20 of the International Astronomical Union by the
              Minor Planet Center, Smithsonian Astrophysical Observatory,
                              Cambridge, MA 02138, U.S.A.
    
                 Prepared using the Tamkin Foundation Computer Network
    
                                  MPC@CFA.HARVARD.EDU
                URL https://www.minorplanetcenter.net/    ISSN 1523-6714
    
                                       2011 PK10
    
    Observations:
         K11P10K*QC2011 08 14.67204 23 28 41.27 -39 57 27.7          17.0 VrEP059E12
         K11P10K QC2011 08 14.67262 23 28 42.13 -39 58 13.6                rEP059E12
         K11P10K QC2011 08 14.67321 23 28 42.98 -39 58 57.8                rEP059E12
         K11P10K QC2011 08 14.67380 23 28 43.95 -39 59 41.0                rEP059E12
         K11P10K QC2011 08 14.67437 23 28 44.91 -40 00 26.9                rEP059E12
         K11P10K QC2011 08 14.67519 23 28 46.01 -40 01 27.9          18.1 VrEP059E12
         K11P10K QC2011 08 14.67577 23 28 46.89 -40 02 11.2          17.6 VrEP059E12
         K11P10K QC2011 08 14.67635 23 28 47.96 -40 02 59.7                rEP059E12
         K11P10K QC2011 08 14.67696 23 28 48.86 -40 03 45.4          18.6 VrEP059E12
         K11P10K QC2011 08 14.67755 23 28 49.66 -40 04 29.9                rEP059E12
         K11P10K QC2011 08 14.67839 23 28 50.96 -40 05 32.0          17.9 VrEP059E12
         K11P10K QC2011 08 14.67899 23 28 51.88 -40 06 20.5          17.7 VrEP059E12
         K11P10K QC2011 08 14.67960 23 28 52.84 -40 07 05.0          18.2 VrEP059E12
         K11P10K QC2011 08 14.68018 23 28 53.69 -40 07 50.8          18.2 VrEP059E12
         K11P10K QC2011 08 14.68079 23 28 54.67 -40 08 37.6          18.1 VrEP059E12
         K11P10K QC2011 08 14.68160 23 28 55.81 -40 09 35.7          17.6 VrEP059E12
         K11P10K QC2011 08 14.68220 23 28 56.76 -40 10 24.1                rEP059E12
         K11P10K QC2011 08 14.68280 23 28 57.63 -40 11 10.4          17.7 VrEP059E12
         K11P10K QC2011 08 14.68339 23 28 58.57 -40 11 56.5          17.3 VrEP059E12
         K11P10K QC2011 08 14.68399 23 28 59.49 -40 12 38.9                rEP059E12
         K11P10K QC2011 08 14.68942623 29 07.78 -40 19 33.1          17.1 VrEP059E12
         K11P10K QC2011 08 14.70174023 29 26.58 -40 35 03.7          16.8 VrEP059E12
         K11P10K QC2011 08 14.71515123 29 47.16 -40 51 49.0          17.1 VrEP059E12
         K11P10K QC2011 08 14.72269223 29 58.75 -41 01 11.6          17.2 VrEP059E12
         K11P10K QC2011 08 14.73581823 30 19.00 -41 17 24.0          16.8 VrEP059E12
         K11P10K QC2011 08 14.74322823 30 30.48 -41 26 30.0          17.0 VrEP059E12
         K11P10K QC2011 08 14.75009723 30 41.17 -41 34 54.0          16.9 VrEP059E12
         K11P10K QC2011 08 14.77528623 31 20.55 -42 05 24.5          16.9 VrEP059E12
         K11P10K QC2011 08 14.78993023 31 43.59 -42 22 55.9          16.8 VrEP059E12
         K11P10K QC2011 08 14.81039423 32 16.09 -42 47 10.7          17.2 VrEP059E12
         K11P10K QC2011 08 14.81315523 32 20.48 -42 50 25.6          17.0 VrEP059E12
         K11P10K QC2011 08 14.81505423 32 23.57 -42 52 39.4          16.9 VrEP059E12
         K11P10K QC2011 08 14.81760923 32 27.64 -42 55 39.3          16.9 VrEP059E12
         K11P10K QC2011 08 14.82058623 32 32.38 -42 59 08.9          16.6 VrEP059E12
         K11P10K QC2011 08 14.82727523 32 43.15 -43 06 57.6          17.1 VrEP059E12
         K11P10K KC2011 08 15.05946 23 39 55.49 -47 25 14.6          16.7 RrEP059I77
         K11P10K KC2011 08 15.06038 23 39 56.98 -47 26 12.6          16.5 RrEP059I77
         K11P10K KC2011 08 15.06186 23 39 59.45 -47 27 46.0          16.8 RrEP059I77
    
    Observer details:
    E12 Siding Spring Survey.  Observer R. H. McNaught.  Measurers J. D. Ahern,
        E. C. Beshore, A. Boattini, G. J. Garradd, A. R. Gibbs, A. D. Grauer,
        R. E. Hill, R. A. Kowalski, S. M. Larson, R. H. McNaught.  0.5-m Uppsala
        Schmidt + CCD.
    I77 CEAMIG-REA Observatory, Belo Horizonte.  Observers C. Jacques, E. Pimentel.
        Measurer C. Jacques.  0.30-m f/3.0 reflector + CCD.
    
    Orbital elements:
    2011 PK10                                                Earth MOID = 0.0256 AU
    Epoch 2011 Aug. 27.0 TT = JDT 2455800.5                 MPC
    M   8.08602              (2000.0)            P               Q
    n   0.42069975     Peri.  173.73895     +0.72190884     +0.52325804
    a   1.7639565      Node   140.77500     -0.66189485     +0.71302196
    e   0.4121606      Incl.   45.73144     -0.20184856     -0.46669124
    P   2.34           H   23.2           G   0.15           U   7
    Residuals in seconds of arc
    110814 E12  0.9+  0.1+    110814 E12  1.1+  1.0-    110814 E12  1.2+  0.4-
    110814 E12  0.6+  1.4-    110814 E12  1.7+  1.3-    110814 E12  1.5+  0.5-
    110814 E12  0.0   0.4-    110814 E12  0.6+  2.3+    110814 E12  1.1+  0.2-
    110814 E12  0.9+  1.6+    110814 E12  1.0+  0.4-    110814 E12  0.9+  0.2-
    110814 E12  1.9+  0.7-    110814 E12  0.5+  1.0-    110814 E12  0.6+  0.1-
    110814 E12  0.2+  1.0+    110814 E12  1.0+  2.2-    110814 E12  1.2+  0.0
    110814 E12  0.2+  2.0+    110814 E12  1.0+  1.1+    110814 E12  0.9+  0.0
    110814 E12  2.3+  2.2-    110814 E12  1.0+  0.2-    110814 E12  0.5+  0.2-
    110814 E12  2.0+  1.3-    110814 E12  0.7+  0.4-    110814 E12  0.6+  0.1+
    110814 E12  0.9+  0.7-    110814 E12  0.9+  0.2+    110815 I77  1.2+  0.3-
    110814 E12  1.1+  1.3+    110814 E12  0.8+  0.2-    110815 I77  0.9+  0.1-
    110814 E12  1.2+  1.4-    110814 E12  0.8+  0.0     110815 I77  1.1+  0.1+
    110814 E12  1.5+  0.6+    110814 E12  0.9+  0.2-
    
    Ephemeris:
    2011 PK10                a,e,i = 1.76, 0.41, 46                  q = 1.0369
    Date    TT    R. A. (2000) Decl.     Delta      r     Elong.  Phase     V
    2011 07 16    20 14 53.8 +72 35 35   0.4042  1.0655    85.7    72.0    23.9
    ...
    2011 07 31    20 46 50.9 +69 49 06   0.1984  1.0403    91.7    77.3    22.5
    ...
    2011 08 08    21 35 02.1 +60 16 29   0.08521 1.0369   103.2    72.2    20.5
    ...
    2011 08 14    23 11 06.5 -23 19 29   0.02859 1.0391   155.1    24.2    16.7
    2011 08 15    23 37 52.7 -46 20 51   0.03534 1.0399   139.1    39.7    17.6
    2011 08 16    00 08 27.4 -60 04 08   0.04594 1.0407   126.5    51.4    18.5
    ...
    2011 08 22    03 31 21.4 -78 48 41   0.1275  1.0483   103.3    69.9    21.3
    ...
    2011 08 30    05 30 58.8 -79 28 38   0.2412  1.0643    96.4    70.6    22.7
    ...
    2011 09 14    06 12 03.3 -79 06 48   0.4454  1.1106    91.5    64.9    24.0
    
    A. U. Tomatic                (C) Copyright 2011 MPC           M.P.E.C. 2011-P59
    

    Read MPEC 2011-P58 Read MPEC 2011-Q01


    MPEC number:

    Enter an MPEC number in one of the following forms:

    • 1997-B01 (the full form)
    • J97B01 (the packed version of the full form)
    • B01 (the abbreviated form)